AS014 Weather Reports


Display with metric or nautical units.
time (UTC)temp
F
wind
direction
speed
MPH
gust
MPH
rain 1hr
in
rain 24hr
in
rain mn
in
humidity
%
barometer
mb
20260906220017 92 338 3.0 9.0 0.00 0.00 0.00 33 1015.3
20260906214518 93 90 2.0 6.0 0.00 0.00 0.00 32 1015.7
20260906213018 91 90 2.0 7.0 0.00 0.00 0.00 33 1015.6
20260906211558 91 45 2.0 7.0 0.00 0.00 0.00 35 1016.5
20260906210018 91 90 1.0 5.0 0.00 0.00 0.00 35 1016.7
20260906204517 90 0 3.0 11.0 0.00 0.00 0.00 36 1017.1
20260906203018 90 90 1.0 6.0 0.00 0.00 0.00 35 1017.1
20260906201518 89 90 4.0 10.0 0.00 0.00 0.00 36 1017.3
20260906200017 90 113 2.0 11.0 0.00 0.00 0.00 32 1017.5
20260906194518 88 113 3.0 10.0 0.00 0.00 0.00 36 1016.7
20260906193038 88 90 2.0 5.0 0.00 0.00 0.00 38 1017.0
20260906191517 86 90 3.0 7.0 0.00 0.00 0.00 40 1017.5
20260906190038 85 0 3.0 9.0 0.00 0.00 0.00 44 1017.7
20260906184517 85 0 2.0 6.0 0.00 0.00 0.00 42 1018.1
20260906183057 84 0 2.0 6.0 0.00 0.00 0.00 43 1018.4
20260906181517 82 338 3.0 10.0 0.00 0.00 0.00 44 1018.3
20260906180017 83 0 2.0 5.0 0.00 0.00 0.00 43 1018.9
20260906174517 82 0 1.0 4.0 0.00 0.00 0.00 46 1019.2
20260906173017 79 0 2.0 6.0 0.00 0.00 0.00 47 1019.0
20260906171517 78 338 2.0 7.0 0.00 0.00 0.00 51 1018.7
20260906170017 77 338 2.0 6.0 0.00 0.00 0.00 53 1019.0
20260906164517 76 338 2.0 6.0 0.00 0.00 0.00 54 1018.7
20260906163017 75 338 2.0 6.0 0.00 0.00 0.00 56 1018.7
20260906161517 73 315 2.0 6.0 0.00 0.00 0.00 58 1018.5
20260906160017 72 338 2.0 6.0 0.00 0.00 0.00 58 1018.2
20260906154517 72 338 3.0 7.0 0.00 0.00 0.00 58 1018.6
20260906153017 71 338 2.0 6.0 0.00 0.00 0.00 59 1018.6
20260906151517 70 315 3.0 7.0 0.00 0.00 0.00 59 1018.9
20260906150018 69 315 4.0 9.0 0.00 0.00 0.00 60 1018.7
20260906144537 68 338 4.0 9.0 0.00 0.00 0.00 60 1018.5
20260906143017 67 338 3.0 9.0 0.00 0.00 0.00 60 1018.6
20260906141517 67 315 1.0 5.0 0.00 0.00 0.00 60 1019.0
20260906140018 65 0.0 3.0 0.00 0.00 0.00 61 1018.6
20260906134517 63 0.0 0.0 0.00 0.00 0.00 62 1018.4
20260906133037 62 0.0 0.0 0.00 0.00 0.00 62 1018.0
20260906131517 61 0.0 0.0 0.00 0.00 0.00 63 1018.3
20260906130017 61 0.0 0.0 0.00 0.00 0.00 63 1018.1
20260906124517 61 0.0 0.0 0.00 0.00 0.00 63 1018.9
20260906123037 61 0.0 0.0 0.00 0.00 0.00 63 1019.1
20260906121517 62 0.0 0.0 0.00 0.00 0.00 62 1019.5
20260906120017 62 0.0 0.0 0.00 0.00 0.00 62 1019.7
20260906114517 63 0.0 0.0 0.00 0.00 0.00 62 1019.7
20260906113016 63 0.0 0.0 0.00 0.00 0.00 62 1019.9
20260906111516 63 0.0 3.0 0.00 0.00 0.00 62 1020.1
20260906110057 63 0.0 5.0 0.00 0.00 0.00 62 1019.8
20260906104516 63 0.0 0.0 0.00 0.00 0.00 62 1019.3
20260906103017 63 0.0 0.0 0.00 0.00 0.00 62 1019.3
20260906101516 64 0.0 0.0 0.00 0.00 0.00 61 1019.1
20260906100017 64 0.0 0.0 0.00 0.00 0.00 61 1019.3
20260906094516 65 0.0 1.0 0.00 0.00 0.00 61 1020.2
20260906093017 65 0.0 1.0 0.00 0.00 0.00 60 1020.2
20260906091517 66 0.0 0.0 0.00 0.00 0.00 59 1020.1
20260906090016 67 0.0 4.0 0.00 0.00 0.00 58 1020.1
20260906084517 68 0.0 3.0 0.00 0.00 0.00 56 1019.7
20260906083016 69 0.0 4.0 0.00 0.00 0.00 52 1020.0
20260906081517 69 0 1.0 6.0 0.00 0.00 0.00 51 1019.5
20260906080016 70 0.0 0.0 0.00 0.00 0.00 53 1019.7
20260906074517 70 0.0 5.0 0.00 0.00 0.00 51 1019.2
20260906073017 69 0.0 4.0 0.00 0.00 0.00 53 1019.3
20260906071516 68 0.0 0.0 0.00 0.00 0.00 56 1018.7
20260906070016 69 0.0 0.0 0.00 0.00 0.00 55 1019.1
20260906064516 70 0.0 0.0 0.00 0.00 0.00 53 1019.5
20260906063016 71 0.0 2.0 0.00 0.00 0.00 50 1019.7
20260906061516 72 0.0 5.0 0.00 0.00 0.00 47 1019.4
20260906060016 72 0.0 0.0 0.00 0.00 0.00 46 1019.2
20260906054519 73 0.0 0.0 0.00 0.00 0.00 46 1019.3
20260906053019 74 0.0 0.0 0.00 0.00 0.00 45 1020.0
20260906051518 74 0.0 0.0 0.00 0.00 0.00 43 1019.8
20260906050018 73 0.0 0.0 0.00 0.00 0.00 45 1020.1
20260906044538 71 0.0 0.0 0.00 0.00 0.00 47 1019.6
20260906043018 70 0.0 0.0 0.00 0.00 0.00 51 1018.2
20260906041518 71 0.0 0.0 0.00 0.00 0.00 49 1018.1
20260906040018 72 0.0 0.0 0.00 0.00 0.00 47 1018.1
20260906034518 73 0.0 0.0 0.00 0.00 0.00 45 1017.8
20260906033018 75 0.0 2.0 0.00 0.00 0.00 42 1018.0
20260906031518 75 0.0 3.0 0.00 0.00 0.00 40 1017.2
20260906030018 76 0.0 0.0 0.00 0.00 0.00 39 1016.6
20260906024518 78 0.0 2.0 0.00 0.00 0.00 37 1015.5
20260906023018 79 338 1.0 3.0 0.00 0.00 0.00 35 1015.9
20260906021518 80 338 2.0 5.0 0.00 0.00 0.00 34 1014.6
20260906020058 81 315 2.0 5.0 0.00 0.00 0.00 34 1014.9
20260906014518 82 315 3.0 7.0 0.00 0.00 0.00 33 1013.6
20260906013017 82 315 3.0 7.0 0.00 0.00 0.00 32 1013.7
20260906011518 83 315 3.0 7.0 0.00 0.00 0.00 31 1013.6
20260906010038 84 315 5.0 12.0 0.00 0.00 0.00 30 1013.9
20260906004517 86 315 3.0 10.0 0.00 0.00 0.00 28 1014.3
20260906003017 87 315 3.0 7.0 0.00 0.00 0.00 27 1014.2
20260906001518 90 293 2.0 9.0 0.00 0.00 0.00 26 1014.8
20260906000018 91 0.0 5.0 0.00 0.00 0.00 25 1015.0
20260905234518 92 158 1.0 3.0 0.00 0.00 0.00 23 1015.2
20260905233018 92 158 1.0 3.0 0.00 0.00 0.00 24 1015.3
20260905231537 93 113 1.0 6.0 0.00 0.00 0.00 24 1015.6
20260905230017 95 0.0 4.0 0.00 0.00 0.00 24 1015.9
20260905224517 95 135 1.0 4.0 0.00 0.00 0.00 22 1015.8
20260905223018 95 315 1.0 4.0 0.00 0.00 0.00 24 1015.8
20260905221517 94 293 2.0 5.0 0.00 0.00 0.00 23 1016.0
20260905220038 94 113 1.0 4.0 0.00 0.00 0.00 24 1016.1